Location: Liberec
(50.7830°N, 15.0500°E)
Time: 15:26:12
(UTC+02:00)

ISS - Visible Passes

Search period start: 20 July 2019 00:00
Search period end: 30 July 2019 00:00
Orbit: 409 x 418 km, 51.6° (Epoch: 20 July)

Date Brightness Start Highest point End Pass type
(mag) Time Alt. Az. Time Alt. Az. Time Alt. Az.
20 Jul -3.9 01:29:09 10° WNW 01:32:30 86° SSW 01:35:50 10° ESE visible
20 Jul -2.9 03:06:02 10° W 03:08:55 27° SSW 03:09:06 27° SSW visible
20 Jul -3.8 23:03:03 10° WSW 23:06:24 88° N 23:09:45 10° ENE visible
21 Jul -3.8 00:39:50 10° W 00:43:11 81° NNE 00:45:17 21° E visible
21 Jul -2.1 02:16:36 10° W 02:18:01 21° W 02:18:01 21° W visible
21 Jul -3.9 22:13:44 10° WSW 22:17:05 77° SSE 22:20:25 10° ENE visible
21 Jul -3.7 23:50:29 10° W 23:53:50 75° N 23:56:38 14° E visible
22 Jul -2.8 01:27:13 10° W 01:29:24 35° W 01:29:24 35° W visible
22 Jul -3.6 23:01:06 10° W 23:04:28 74° N 23:07:48 10° E visible
23 Jul -4.0 00:37:52 10° WNW 00:41:10 73° SSW 00:41:10 73° SSW visible
23 Jul -3.7 22:11:44 10° W 22:15:05 80° N 22:18:26 10° E visible
23 Jul -3.9 23:48:30 10° WNW 23:51:51 90° WNW 23:53:06 36° ESE visible
24 Jul -1.3 01:25:21 10° W 01:25:54 13° W 01:25:54 13° W visible
24 Jul -3.7 22:59:08 10° W 23:02:29 79° N 23:05:07 15° E visible
25 Jul -2.5 00:35:53 10° W 00:37:56 30° WSW 00:37:56 30° WSW visible
25 Jul -3.6 22:09:44 10° W 22:13:06 74° N 22:16:26 10° E visible
25 Jul -3.8 23:46:28 10° WNW 23:49:47 60° SSW 23:50:00 58° S visible
26 Jul -3.9 22:57:05 10° WNW 23:00:26 78° SSW 23:02:07 27° ESE visible
27 Jul -1.5 00:34:05 10° W 00:34:56 15° W 00:34:56 15° W visible
27 Jul -3.8 22:07:41 10° WNW 22:11:03 86° NNE 22:14:16 11° E visible
27 Jul -2.7 23:44:30 10° W 23:47:04 32° SW 23:47:04 32° SW visible
28 Jul -3.4 22:55:01 10° W 22:58:14 47° SSW 22:59:14 34° SSE visible
29 Jul -3.7 22:05:33 10° WNW 22:08:53 65° SSW 22:11:26 16° ESE visible
29 Jul -1.6 23:42:48 10° W 23:44:15 16° WSW 23:44:15 16° WSW visible
